Location: Ikejouine
(32.5142°N, 5.4699°W)
Time: 17:29:22
(UTC+00:00)

CZ-2C R/B - Pass Details

Date: 09 April 2020
Orbit: 705 x 907 km, 98.1° (Epoch: 27 May)

Event Time Altitude Azimuth Distance (km) Brightness Sun altitude
Exits shadow 20:10:46 10° 170° (S) 2,232 5.1 -17.6°
Maximum altitude 20:15:38 82° 257° (WSW) 735 2.9 -18.6°
Drops below altitude 10° 20:20:25 10° 346° (NNW) 2,188 5.9 -19.5°
Sets 20:22:40 0° 347° (NNW) 3,103 6.7 -19.9°
